Tracking 25711 objects as of 23-May-2022
HD Live streaming from Space Station
objects crossing your sky now

COSMOS 1275 DEB

Track COSMOS 1275 DEB now!
10-day predictions


NORAD ID: 42210
Int'l Code: 1981-053UA
Perigee: 930.4 km
Apogee: 1,097.1 km
Inclination: 83.0 °
Period: 105.3 minutes
Semi major axis: 7384 km
RCS: Unknown
Launch date: June 4, 1981
Source: Commonwealth of Independent States (former USSR) (CIS)
Launch site: PLESETSK MISSILE AND SPACE COMPLEX (PKMTR)

Note: This is SATELLITE DEBRIS
aabbcc
Your satellite tracking list
Your tracking list is empty




NASA's NSSDC Master Catalog

Two Line Element Set (TLE):
1 42210U 81053UA  22142.12177292  .00001076  00000-0  11943-2 0  9992
2 42210  83.0082 272.8089 0112890 162.8248 318.6582 13.68036661423844
Source of the keplerian elements: AFSPC